Location: St. Malo Provincial Park
(49.3214°N, 96.9305°W)
Time: 19:19:23
(UTC-05:00)

Daily predictions for brighter satellites

Satellite Brightness Start Highest point End
(mag) Time Altitude Azimuth Time Altitude Azimuth Time Altitude Azimuth
Meteor 1-27 Rocket 3.9 21:48:28 10° N 21:54:03 61° ENE 21:59:31 10° SSE
Cosmos 1340 Rocket 3.5 21:51:27 10° SSW 21:55:24 60° WNW 21:59:26 10° N
YAOGAN 6 3.1 21:52:50 10° SE 21:56:10 42° ENE 21:59:31 10° N
Cosmos 1408 3.9 21:53:49 10° SE 21:56:48 24° E 21:59:47 10° NE
Cosmos 1782 2.9 21:54:04 10° N 21:58:07 88° W 22:02:10 10° S
Nadezhda 3 Rocket 4.2 21:54:11 10° N 22:00:31 64° ENE 22:06:49 10° SSE
Cosmos 2263 Rocket 3.3 21:55:12 10° SW 22:00:44 52° NW 22:06:15 10° NNE
MetOp-A 4.2 21:56:53 10° SSE 22:02:12 72° ENE 22:07:33 10° N
Cosmos 1939 Rocket 3.4 21:59:04 10° S 22:02:53 58° W 22:06:47 10° NNW
NOSS 2-2 (C) 3.7 21:59:36 10° SSW 22:03:42 54° SE 22:08:35 10° NE
Envisat 3.3 21:59:39 10° S 22:04:43 73° WSW 22:09:50 10° NNW
Cosmos 1624 Rocket 4.0 21:59:39 10° SSW 22:04:56 78° ESE 22:10:16 10° NNE
Okean 2 Rocket 4.2 22:03:30 10° SE 22:07:08 25° E 22:10:47 10° NNE
Cosmos 1238 Rocket 2.7 22:04:18 10° N 22:07:14 43° ENE 22:10:27 10° SSE
Cosmos 1242 Rocket 3.8 22:04:21 10° N 22:07:31 28° ENE 22:10:42 10° SE
ERBS 4.2 22:05:23 10° WNW 22:08:12 23° SW 22:10:59 10° S
PSLV R/B 3.0 22:07:45 10° SSE 22:10:42 80° ENE 22:13:41 10° N
H-2A R/B 3.2 22:06:05 10° ESE 22:10:46 31° ENE 22:15:23 10° N
Cosmos 1606 2.7 22:07:51 10° N 22:11:50 81° E 22:15:45 10° SSE
Sich 1 Rocket 3.7 22:07:35 10° S 22:12:08 69° E 22:16:43 10° NNE
Cosmos 1461 3.7 22:07:33 10° SW 22:12:10 63° NW 22:16:38 10° NE
Cosmos 1674 Rocket 4.0 22:08:08 10° NNW 22:12:35 64° W 22:16:58 10° S
SPOT 5 3.3 22:09:40 10° SSE 22:14:57 80° WSW 22:20:21 10° NNW
Cosmos 407 Rocket 3.9 22:14:02 10° NNW 22:19:15 66° WSW 22:24:30 10° S
NOAA 11 4.4 22:14:30 10° SSE 22:19:55 61° ENE 22:25:21 10° N
NOSS 2-2 (E) 3.7 22:18:20 10° SW 22:22:38 83° SE 22:27:54 10° NE
Cosmos 2341 Rocket 4.2 22:16:51 10° S 22:23:00 58° E 22:29:09 10° NNE
Cosmos 1892 4.2 22:19:33 10° SW 22:23:12 40° WNW 22:26:53 10° N
Terra 2.9 22:21:17 11° SE 22:25:15 31° ENE 22:29:27 10° N
SPOT 1/Viking Rocket 3.6 22:20:29 10° SSE 22:25:40 77° ENE 22:30:55 10° NNW
Cosmos 1452 Rocket 3.7 22:23:44 10° S 22:28:49 52° ESE 22:33:57 10° NNE
Cosmos 1782 Rocket 3.9 22:25:02 10° SSE 22:29:20 49° E 22:33:40 10° NNE
Timation 2 Rocket 4.0 22:23:43 10° NNW 22:29:46 65° NE 22:35:01 13° SE
Cosmos 614 Rocket 4.5 22:25:18 10° NNW 22:30:15 46° ENE 22:34:27 14° SE
Cosmos 1140 Rocket 3.5 22:28:21 10° NNW 22:33:31 70° ENE 22:37:56 14° SSE
Coronas F rocket 4.2 22:33:13 10° WSW 22:35:12 19° WNW 22:37:12 10° NNW
DNEPR-1 R/B 4.1 22:31:18 10° NW 22:37:11 76° NE 22:41:08 15° SE
Okean 3 3.5 22:34:26 10° N 22:38:45 84° W 22:42:53 11° S
OPS 6432 4.3 22:37:24 10° SW 22:40:38 82° NW 22:43:48 10° NE
Cosmos 1975 Rocket 3.0 22:36:38 10° N 22:40:59 86° ENE 22:44:55 13° S
BREEZE-M DEB (TANK) 1.1 22:39:53 10° WSW 22:41:54 72° SSE 22:45:00 10° E
Cosmos 962 Rocket 4.5 22:41:20 10° S 22:47:30 84° E 22:53:46 10° N
SL-8 Rocket 4.2 22:41:37 10° SSE 22:47:42 54° E 22:53:45 10° NNE
CARTOSAT-1 4.1 22:44:45 17° SE 22:47:50 46° ENE 22:52:00 10° N
CZ-4B R/B 3.4 22:43:11 10° NNE 22:48:14 71° ESE 22:53:05 10° S
USA 234 3.8 22:44:43 10° ENE 22:50:33 34° SE 22:56:21 10° SSW
SL-8 R/B 3.7 22:48:05 10° WSW 22:52:49 57° SSE 22:57:32 10° E
Cosmos 1536 Rocket 4.2 22:49:24 10° N 22:53:39 41° ENE 22:56:28 19° SE
Cosmos 2154 Rocket 4.3 22:48:00 10° SSW 22:54:12 71° WNW 23:00:25 10° N
Cosmos 1908 Rocket 4.2 22:50:17 10° SSW 22:54:37 58° WNW 22:59:02 10° N
Cosmos 1850 Rocket 4.0 22:52:47 10° NNW 22:58:07 84° ENE 23:02:05 19° SSE
USA 245 4.0 22:56:42 12° SSW 22:59:25 42° W 23:03:09 10° NNW
Meteor 1-14 Rocket 4.4 22:55:28 14° SSE 23:00:17 54° E 23:05:44 10° NNE
SL-08 RB Rocket 3.9 22:57:06 14° S 23:01:00 71° WSW 23:05:40 10° NNW
Cosmos 1184 Rocket 2.9 22:58:00 11° SSW 23:01:14 79° WNW 23:04:37 10° N
ATLAS 5 CENTAUR R/B 4.3 23:00:00 10° WNW 23:04:17 20° WSW 23:08:46 10° SSW
CZ-4 R/B 3.7 23:00:17 10° NNE 23:05:01 76° ESE 23:09:28 11° S
ARGOS 3.6 23:01:22 12° S 23:06:21 58° WSW 23:11:39 10° NNW
Intercosmos 25 2.9 23:06:57 13° S 23:10:04 85° W 23:13:16 10° N
Cosmos 1862 4.5 23:06:20 10° SSW 23:10:14 44° WNW 23:14:10 10° N
Cosmos 2151 Rocket 3.9 23:09:29 21° SSE 23:12:17 52° E 23:16:42 10° NNE
NOSS 5 (C) 4.0 23:09:11 10° SW 23:12:25 73° SE 23:15:33 10° NE
COSMOS 2487 4.0 23:13:13 10° NW 23:16:28 31° WSW 23:18:52 15° SSW
Cosmos 1741 Rocket 4.1 23:11:25 10° NNW 23:16:40 73° WSW 23:20:10 21° S
Cosmos 1825 3.5 23:14:08 10° SW 23:17:44 40° WNW 23:21:23 10° N
Cosmos 2278 Rocket 2.2 23:12:35 10° SSW 23:18:16 86° ESE 23:24:00 10° NNE
Cosmos 1833 Rocket 2.8 23:13:24 10° NNW 23:19:02 72° ENE 23:22:38 23° SE
Cosmos 2084 3.1 23:16:24 10° SSW 23:20:12 64° SE 23:24:02 10° NE
Cosmos 1844 4.2 23:15:42 10° SW 23:21:26 67° WNW 23:27:15 10° NNE
Cosmos 1812 3.0 23:22:28 10° N 23:26:18 54° ENE 23:27:53 31° SE
Cosmos 2366 rocket 4.0 23:21:19 16° S 23:26:22 75° E 23:32:43 10° NNE
Cosmos 1844 Rocket 3.8 23:23:52 10° SW 23:29:18 46° NW 23:34:45 10° NNE
CZ-4C R/B 4.0 23:27:38 21° SSW 23:30:00 49° W 23:33:58 10° NNW
Gbstr 26 Del rocket 3.2 23:27:25 10° WNW 23:32:35 77° NNE 23:35:48 17° E
APEX 3.6 23:30:42 22° SSW 23:33:18 65° ESE 23:38:30 10° NE
Cosmos 2082 Rocket 2.3 23:28:11 10° NNW 23:33:55 76° WSW 23:37:16 26° SSE
USA 229 DEB 3.8 23:27:56 10° NW 23:35:02 82° SW 23:39:43 24° SE
USA 229 3.8 23:28:02 10° NW 23:35:09 83° SW 23:39:49 24° SE
Okean 1-7 Rocket 4.1 23:33:08 10° N 23:37:33 48° ENE 23:39:26 29° SE
CZ-4B R/B 3.9 23:39:35 10° ENE 23:39:39 10° ENE 23:39:43 10° ENE
Okean 1 Rocket 3.7 23:42:15 31° SE 23:43:44 41° E 23:47:58 10° NNE
Cosmos 1025 Rocket 4.3 23:39:52 10° N 23:43:45 30° ENE 23:45:25 23° ESE
Okean 2 Rocket 4.5 23:40:58 10° SW 23:45:04 36° WNW 23:49:11 10° N
Cosmos 1300 Rocket 3.9 23:45:04 33° SSE 23:46:39 50° E 23:50:58 10° NNE
Cosmos 2297 3.6 23:44:49 14° SSW 23:49:49 80° ESE 23:55:35 10° NNE
Cosmos 2218 Rocket 4.3 23:43:59 12° SSW 23:49:52 69° WNW 23:56:17 10° N
H-2A R/B 2.9 23:46:19 19° SSW 23:50:00 47° W 23:55:09 10° NNW
Cosmos 1400 Rocket 4.3 23:51:04 22° E 23:51:35 22° E 23:54:49 10° NE
AVUM R/B 3.3 23:48:28 10° NNW 23:52:01 90° NNE 23:52:51 50° SSE
